Terug naar catalogus

EROS C3

ActiefWetenschapVLEO
NORAD 54880·PAYLOAD·🇮🇱 Israel

Gelanceerd Dec 30, 2022 vanaf Vandenberg Space Force Base

Loading…

Volgende Passages (komende 24 uur)

TLE

VersSource: Space-Track

Epoch: Sep 14, 2026, 15:20 UTC

1 54880U 22179A   26257.63943918  .00003164  00000-0  16970-3 0  9991
2 54880 139.3337 156.0184 0009015 242.8596 117.1292 15.11403746205868

Volg EROS C3 in realtime met AllMySat

Download on the App Store